| time (UTC) | temp F | wind direction | speed MPH | gust MPH | rain 1hr in | rain 24hr in | rain mn in | humidity % | barometer mb |
| 20260903100047 | 71 | 301 | 0.0 | 0.0 | 0.02 | 0.73 | 0.55 | 94 | 1012.3 |
| 20260903094546 | 71 | 301 | 0.0 | 0.0 | 0.03 | 0.76 | 0.55 | 93 | 1012.3 |
| 20260903093054 | 71 | 301 | 0.0 | 0.0 | 0.05 | 0.76 | 0.55 | 93 | 1012.3 |
| 20260903091544 | 71 | 301 | 0.0 | 0.0 | 0.06 | 0.75 | 0.54 | 93 | 1012.2 |
| 20260903090044 | 71 | 301 | 0.0 | 0.0 | 0.09 | 0.74 | 0.53 | 92 | 1012.1 |
| 20260903084543 | 71 | 301 | 0.0 | 0.0 | 0.11 | 0.73 | 0.52 | 92 | 1012.0 |
| 20260903083042 | 71 | 301 | 0.0 | 0.0 | 0.09 | 0.71 | 0.50 | 91 | 1012.0 |
| 20260903081542 | 71 | 301 | 0.0 | 0.0 | 0.07 | 0.69 | 0.48 | 90 | 1011.9 |
| 20260903080041 | 72 | 301 | 0.0 | 19.0 | 0.03 | 0.65 | 0.44 | 90 | 1011.8 |
| 20260903074548 | 72 | 13 | 0.0 | 0.0 | 0.00 | 0.62 | 0.41 | 92 | 1012.8 |
| 20260903073044 | 72 | 320 | 0.0 | 0.0 | 0.00 | 0.62 | 0.41 | 91 | 1011.5 |
| 20260903071540 | 72 | 320 | 0.0 | 0.0 | 0.00 | 0.62 | 0.41 | 90 | 1012.1 |
| 20260903070044 | 72 | 333 | 0.0 | 10.0 | 0.00 | 0.62 | 0.41 | 90 | 1012.4 |
| 20260903064539 | 74 | 5 | 0.0 | 0.0 | 0.01 | 0.62 | 0.41 | 93 | 1012.9 |
| 20260903063038 | 74 | 21 | 0.0 | 0.0 | 0.04 | 0.62 | 0.41 | 93 | 1011.0 |
| 20260903061535 | 74 | 21 | 0.0 | 0.0 | 0.06 | 0.62 | 0.41 | 93 | 1011.4 |
| 20260903060033 | 74 | 21 | 0.0 | 0.0 | 0.10 | 0.62 | 0.41 | 92 | 1011.6 |
| 20260903054535 | 73 | 21 | 0.0 | 0.0 | 0.14 | 0.60 | 0.39 | 92 | 1011.7 |
| 20260903053031 | 73 | 21 | 0.0 | 0.0 | 0.19 | 0.57 | 0.37 | 91 | 1011.7 |
| 20260903051533 | 73 | 21 | 0.0 | 0.0 | 0.22 | 0.55 | 0.34 | 90 | 1011.6 |
| 20260903050029 | 73 | 21 | 0.0 | 0.0 | 0.30 | 0.51 | 0.30 | 89 | 1011.5 |
| 20260903044530 | 73 | 67 | 1.0 | 24.0 | 0.28 | 0.46 | 0.25 | 86 | 1012.0 |
| 20260903043027 | 72 | 304 | 0.0 | 11.0 | 0.28 | 0.39 | 0.18 | 90 | 1012.3 |
| 20260903041520 | 71 | 309 | 0.0 | 7.0 | 0.28 | 0.32 | 0.11 | 90 | 1012.5 |
| 20260903040016 | 72 | 9 | 0.0 | 0.0 | 0.18 | 0.21 | 0.00 | 90 | 1012.5 |
| 20260903034515 | 72 | 5 | 0.0 | 5.0 | 0.15 | 0.18 | 0.18 | 89 | 1012.9 |
| 20260903033017 | 75 | 327 | 2.0 | 18.0 | 0.07 | 0.10 | 0.10 | 85 | 1013.4 |
| 20260903031515 | 86 | 329 | 0.0 | 4.0 | 0.00 | 0.03 | 0.03 | 76 | 1011.4 |
| 20260903030008 | 86 | 251 | 0.0 | 5.0 | 0.00 | 0.03 | 0.03 | 76 | 1010.4 |
| 20260903024508 | 86 | 231 | 0.0 | 5.0 | 0.00 | 0.03 | 0.03 | 75 | 1009.6 |
| 20260903023006 | 87 | 242 | 0.0 | 8.0 | 0.00 | 0.03 | 0.03 | 74 | 1009.6 |
| 20260903021507 | 87 | 232 | 0.0 | 4.0 | 0.00 | 0.03 | 0.03 | 73 | 1010.4 |
| 20260903020004 | 87 | 234 | 0.0 | 2.0 | 0.00 | 0.03 | 0.03 | 73 | 1010.7 |
| 20260903014503 | 88 | 229 | 0.0 | 8.0 | 0.00 | 0.03 | 0.03 | 72 | 1010.6 |
| 20260903013005 | 88 | 239 | 0.0 | 4.0 | 0.00 | 0.03 | 0.03 | 71 | 1010.5 |
| 20260903011502 | 88 | 232 | 0.0 | 0.0 | 0.00 | 0.03 | 0.03 | 69 | 1010.6 |
| 20260903010002 | 89 | 232 | 0.0 | 0.0 | 0.00 | 0.03 | 0.03 | 68 | 1010.5 |
| 20260903004504 | 89 | 226 | 0.0 | 5.0 | 0.00 | 0.03 | 0.03 | 67 | 1010.4 |
| 20260903003002 | 90 | 225 | 0.0 | 0.0 | 0.00 | 0.03 | 0.03 | 65 | 1010.1 |
| 20260903001601 | 90 | 240 | 0.0 | 7.0 | 0.00 | 0.03 | 0.03 | 64 | 1010.1 |
| 20260903000100 | 91 | 245 | 1.0 | 7.0 | 0.00 | 0.03 | 0.03 | 62 | 1010.3 |
| 20260902234601 | 92 | 247 | 0.0 | 8.0 | 0.00 | 0.03 | 0.03 | 61 | 1010.3 |
| 20260902233059 | 92 | 223 | 1.0 | 6.0 | 0.00 | 0.03 | 0.03 | 59 | 1010.3 |
| 20260902231558 | 93 | 236 | 0.0 | 5.0 | 0.00 | 0.03 | 0.03 | 58 | 1010.4 |
| 20260902230108 | 93 | 281 | 0.0 | 6.0 | 0.00 | 0.03 | 0.03 | 56 | 1010.3 |
| 20260902224559 | 94 | 273 | 0.0 | 9.0 | 0.00 | 0.03 | 0.03 | 55 | 1010.1 |
| 20260902223108 | 94 | 294 | 2.0 | 11.0 | 0.00 | 0.03 | 0.03 | 54 | 1010.1 |
| 20260902221558 | 94 | 234 | 0.0 | 10.0 | 0.00 | 0.03 | 0.03 | 54 | 1009.9 |
| 20260902220056 | 94 | 288 | 4.0 | 17.0 | 0.00 | 0.03 | 0.03 | 54 | 1009.9 |
| 20260902214556 | 94 | 225 | 0.0 | 9.0 | 0.00 | 0.03 | 0.03 | 54 | 1010.1 |
| 20260902213101 | 94 | 300 | 0.0 | 7.0 | 0.00 | 0.03 | 0.03 | 54 | 1010.1 |
| 20260902211557 | 94 | 278 | 0.0 | 10.0 | 0.00 | 0.03 | 0.03 | 55 | 1010.1 |
| 20260902210100 | 94 | 219 | 1.0 | 13.0 | 0.00 | 0.03 | 0.03 | 55 | 1010.2 |
| 20260902204551 | 94 | 292 | 1.0 | 10.0 | 0.00 | 0.03 | 0.03 | 55 | 1010.3 |
| 20260902203051 | 95 | 307 | 1.0 | 10.0 | 0.00 | 0.03 | 0.03 | 54 | 1010.5 |
| 20260902201549 | 95 | 292 | 0.0 | 8.0 | 0.00 | 0.03 | 0.03 | 53 | 1010.7 |
| 20260902200050 | 97 | 309 | 4.0 | 9.0 | 0.00 | 0.03 | 0.03 | 52 | 1010.8 |
| 20260902194547 | 97 | 281 | 4.0 | 11.0 | 0.00 | 0.03 | 0.03 | 52 | 1011.0 |
| 20260902193046 | 96 | 314 | 1.0 | 7.0 | 0.00 | 0.03 | 0.03 | 55 | 1011.1 |
| 20260902191544 | 96 | 275 | 0.0 | 7.0 | 0.00 | 0.03 | 0.03 | 53 | 1011.3 |
| 20260902190047 | 95 | 297 | 0.0 | 8.0 | 0.00 | 0.03 | 0.03 | 54 | 1011.3 |
| 20260902184541 | 97 | 281 | 4.0 | 11.0 | 0.00 | 0.03 | 0.03 | 51 | 1011.3 |
| 20260902183041 | 97 | 293 | 4.0 | 12.0 | 0.00 | 0.03 | 0.03 | 52 | 1011.3 |
| 20260902181538 | 95 | 308 | 0.0 | 5.0 | 0.00 | 0.03 | 0.03 | 57 | 1011.6 |
| 20260902180036 | 96 | 300 | 0.0 | 9.0 | 0.00 | 0.03 | 0.03 | 55 | 1011.8 |
| 20260902174534 | 96 | 263 | 0.0 | 14.0 | 0.00 | 0.03 | 0.03 | 58 | 1012.0 |
| 20260902173036 | 95 | 304 | 4.0 | 9.0 | 0.00 | 0.03 | 0.03 | 58 | 1012.3 |
| 20260902171529 | 94 | 253 | 0.0 | 7.0 | 0.00 | 0.03 | 0.03 | 60 | 1012.5 |
| 20260902170025 | 93 | 259 | 0.0 | 7.0 | 0.00 | 0.03 | 0.03 | 62 | 1012.6 |
| 20260902164524 | 93 | 227 | 0.0 | 9.0 | 0.00 | 0.03 | 0.03 | 63 | 1012.8 |
| 20260902163022 | 93 | 225 | 1.0 | 8.0 | 0.00 | 0.03 | 0.03 | 63 | 1013.0 |
| 20260902161525 | 93 | 282 | 0.0 | 5.0 | 0.00 | 0.03 | 0.03 | 63 | 1013.1 |
| 20260902160018 | 92 | 229 | 0.0 | 0.0 | 0.00 | 0.03 | 0.03 | 65 | 1013.1 |
| 20260902154516 | 91 | 217 | 1.0 | 7.0 | 0.00 | 0.03 | 0.03 | 64 | 1013.1 |
| 20260902153014 | 90 | 282 | 0.0 | 0.0 | 0.00 | 0.03 | 0.03 | 67 | 1013.1 |
| 20260902151511 | 90 | 238 | 0.0 | 4.0 | 0.00 | 0.03 | 0.03 | 70 | 1013.0 |
| 20260902150008 | 89 | 216 | 0.0 | 0.0 | 0.00 | 0.03 | 0.03 | 71 | 1012.9 |
| 20260902144507 | 88 | 214 | 0.0 | 5.0 | 0.00 | 0.03 | 0.03 | 74 | 1013.0 |
| 20260902143003 | 87 | 280 | 0.0 | 0.0 | 0.00 | 0.03 | 0.03 | 74 | 1013.1 |
| 20260902141558 | 85 | 298 | 0.0 | 0.0 | 0.00 | 0.03 | 0.03 | 78 | 1013.0 |
| 20260902140057 | 84 | 299 | 0.0 | 4.0 | 0.00 | 0.03 | 0.03 | 80 | 1012.9 |
| 20260902134603 | 83 | 308 | 0.0 | 0.0 | 0.00 | 0.03 | 0.03 | 83 | 1013.1 |
| 20260902133052 | 82 | 263 | 0.0 | 1.0 | 0.00 | 0.03 | 0.03 | 85 | 1013.0 |
| 20260902131549 | 81 | 238 | 0.0 | 2.0 | 0.00 | 0.03 | 0.03 | 87 | 1013.2 |
| 20260902130048 | 80 | 220 | 0.0 | 3.0 | 0.00 | 0.03 | 0.03 | 90 | 1013.0 |
| 20260902124542 | 78 | 226 | 0.0 | 0.0 | 0.00 | 0.04 | 0.03 | 92 | 1013.0 |
| 20260902123041 | 78 | 226 | 0.0 | 0.0 | 0.00 | 0.04 | 0.03 | 93 | 1013.1 |
| 20260902121544 | 77 | 226 | 0.0 | 0.0 | 0.00 | 0.04 | 0.03 | 93 | 1013.1 |
| 20260902120041 | 77 | 226 | 0.0 | 0.0 | 0.00 | 0.04 | 0.03 | 93 | 1013.0 |
| 20260902114540 | 76 | 225 | 0.0 | 0.0 | 0.00 | 0.04 | 0.03 | 93 | 1013.1 |
| 20260902113039 | 76 | 226 | 0.0 | 0.0 | 0.00 | 0.04 | 0.03 | 93 | 1013.0 |
| 20260902111538 | 76 | 226 | 0.0 | 0.0 | 0.00 | 0.04 | 0.03 | 93 | 1013.0 |
| 20260902110038 | 76 | 226 | 0.0 | 3.0 | 0.00 | 0.04 | 0.03 | 93 | 1012.9 |
| 20260902104538 | 76 | 303 | 0.0 | 0.0 | 0.00 | 0.04 | 0.03 | 93 | 1012.8 |
| 20260902103040 | 76 | 303 | 0.0 | 0.0 | 0.00 | 0.04 | 0.03 | 93 | 1012.7 |
| 20260902101535 | 76 | 303 | 0.0 | 1.0 | 0.03 | 0.04 | 0.03 | 92 | 1012.6 |